TIMESTAMP,CO2_1_1_1,H2O_1_1_1,TAU_1_1_1,TAU_SSITC_TEST_1_1_1,H_1_1_1,H_SSITC_TEST_1_1_1,LE_1_1_1,LE_SSITC_TEST_1_1_1,FC_1_1_1,FC_SSITC_TEST_1_1_1,WD_0_0_1,WS_0_0_1,WS_MAX_0_0_1,U_SIGMA_0_0_1,V_SIGMA_0_0_1,W_SIGMA_0_0_1,USTAR_0_0_1,MO_LENGTH_0_0_1,ZL_0_0_1,FETCH_MAX_0_0_1,FETCH_70_0_0_1,FETCH_80_0_0_1,FETCH_90_0_0_1,PA_0_0_1,RH_0_0_1,TA_0_0_1,VPD_0_0_1,T_SONIC_0_0_1,T_SONIC_SIGMA_0_0_1
[yyyymmddHHMMSS],[mmolCO2 mol-1],[mmolH2O mol-1],[kg m-1 s-2],[#],[W m-2],[#],[W m-2],[#],[umolCO2 m-2 s-1],[#],[Decimal degrees],[m s-1],[m s-1],[m s-1],[m s-1],[m s-1],[m s-1],[m],[#],[m],[m],[m],[m],[kPa],[%],[deg C],[hPa],[deg C],[deg C]
20210502003000,422.88304641515589,7.5063915000821622,8.2423967002312290E-002,0,-5.9991241969567346,0,10.590967869100732,0,0.64806184499752861,0,7.3443082566914768,1.8017401799341730,4.7246923812752231,0.68622268957745569,0.58559547635463927,0.34424235164637884,0.27561440604844534,287.24526013558449,6.6145564912130098E-002,104.81054783420210,191.62710905065961,229.32870728707979,287.09232838904956,92.221177690957745,26.093103448275862,22.109655172413795,19.612709008081335,22.049602353277351,0.17432034595242513
20210502010000,423.54810590514558,7.6018990508965230,6.5243409974909725E-002,0,-24.564670398012883,0,9.4762153866523668,0,1.2233435435998530,0,12.740743490052722,2.0452124337268569,5.1081861338594692,0.77230105224422252,0.52065419188017892,0.35308639342284265,0.24487782099472591,49.205590668172469,0.38613498470387680,93.435018518285489,170.82901342216994,204.43869872752006,255.93299122834179,92.234318291546856,27.710999999999999,21.334333333333348,18.295788800416656,21.284458694504679,0.28118311927043488
20210502013000,424.71433820192237,7.8233518453415494,0.10561507160676852,0,-17.410839697606800,0,3.6442659562429505,0,1.4301292549818259,0,17.954368963676302,2.5488952705471708,6.0752001097145749,0.80223659344756348,0.50150085039892789,0.36606440525939882,0.31105692826386833,142.30092493287998,0.13351986298727050,109.92103312315638,200.97070606455350,240.51060652473532,301.09073934216065,92.241996404079870,30.243666666666666,20.380666666666684,16.648964879681390,20.354265865749767,0.48379302112694716
20210502020000,425.68264478695164,8.0275571844772351,0.11039955099107487,0,-31.490557320069950,0,8.5513905887519197,0,2.0421749219891909,0,36.093400861357026,2.3442525769910776,5.3734208061308921,0.67746607545090343,0.64840241378662422,0.35980764148831429,0.31735453980907241,83.569849679181999,0.22735472270130302,113.24899745237315,207.05528625814563,247.79229499299981,310.20654922784053,92.267685142795131,33.391666666666666,19.204000000000008,14.778827591468794,19.254111863878109,0.26275571568896555
20210502023000,425.95312669491352,8.0801706488944145,1.6885482042718641E-002,0,-10.802426416555594,0,2.6887648119421721,0,0.99769417227261270,0,57.119433492273060,2.7697207378548185,4.8468719531271960,0.43712559846925214,0.33403446208030330,0.20487043779886233,0.12396281867038034,14.521932374843033,1.3083658227822708,642.93806460378039,6730.0000000000000,-9999.,-9999.,92.291078568822954,34.989333333333335,18.564333333333309,13.859440091190478,18.639149637100445,0.23350208606955428
20210502030000,425.81884620847813,8.0525557946010444,5.9252629816244219E-002,0,-26.376970902265565,0,4.7320399689064558,0,1.5142497443939533,0,48.610293099748532,3.2310827716190835,5.6220847752384397,0.61370282958413025,0.43647330858118916,0.29232468305270776,0.23207824031679034,39.023908986346903,0.48688100432602571,104.10463075573431,190.33646749051570,227.78413897404153,285.15871214626929,92.287101197265628,35.643333333333331,18.213666666666654,13.421666903927926,18.250168835110117,0.29058230283843589
20210502033000,426.14302284912537,8.0514750249117188,6.6278760721775451E-002,0,-22.068570347945069,0,5.1285987167882583,0,1.6150069802502804,0,53.676468723522049,3.1409871987865512,5.7695804222153164,0.62183558954809970,0.58051230797613040,0.33110040660284695,0.24526257557180189,55.058781321719231,0.34508573462567727,98.490004257985817,180.07113955935421,215.49916324177772,269.77938031772726,92.304567060329859,36.543999999999997,17.817666666666696,12.908379630108175,17.836006476508260,0.20548843769495920
20210502040000,425.92070286031964,7.9967796432832294,6.2919282666004994E-002,0,-28.713265838789106,0,6.6350161245981880,0,2.0443189571093932,0,53.899715129939651,3.3277163702633596,5.7490047876062675,0.65772625170780785,0.53512105086442374,0.34129508593244778,0.23885258607294385,39.087247993712204,0.48609203705148152,94.114129549826686,172.07064497918182,205.92461458413879,257.79318155563851,92.312687602430557,36.862333333333332,17.573333333333323,12.647325890282215,17.599770672268335,0.24806015825578487
20210502043000,426.49429534255177,8.0194147345794491,6.8925595456905367E-002,0,-28.546704014359285,0,8.7465361525936576,0,2.5561850274530795,0,52.395986338066734,3.2750068439367692,5.7467041398622465,0.66904238472139832,0.54663402207712375,0.33474272590484044,0.24980680255002424,44.984484294232047,0.42236785189590798,99.076211040213252,181.14291251832998,216.78180173903849,271.38509151287673,92.336551393012158,37.829333333333331,17.212333333333333,12.172776283833933,17.232500424702948,0.25514158682484411
20210502050000,426.87960497917976,7.9954635896709849,4.7932890058019685E-002,0,-24.351466107758448,0,5.8716945835131407,0,1.8102888070471850,0,48.205344358301176,3.1328631160953408,5.8419891511845021,0.67654733040110515,0.50579086214529512,0.30389596509142186,0.20820757807689022,30.535948386613114,0.62221745201565626,92.527787722893578,169.17030618177182,202.45364980050394,253.44794552619237,92.350067601912372,38.367666666666665,16.944333333333304,11.864257622834646,16.954535935918329,0.26098608221904790
20210502053000,428.93247018254823,8.0523081345576202,4.7790974087313483E-002,1,-22.267406175949191,1,5.3064447979146570,1,1.6342271587963806,1,58.727776395749387,2.9921080587825615,6.1178829942787507,0.97778005620336583,0.67645960444519526,0.39099906220989528,0.20760064173357287,33.104154188776207,0.57394609424704324,75.456608358151811,137.95874572961625,165.10138348304292,206.68734047789491,92.356972860460090,40.704666666666668,16.127333333333354,10.836346084463495,16.119070117526690,0.46758811652832905
20210502060000,431.97564828488214,8.2698768616125236,0.17630280047345567,0,-22.551119803098999,1,3.9068754230345255,1,1.7329114170624462,1,92.848779909049696,2.6257453172250091,8.2687183768783186,1.2086850138398668,1.0153025131061844,0.49664645511088490,0.39809561923750936,230.53203436566594,8.2418046811934723E-002,104.90759878353033,191.80454913884435,229.54105775380606,287.35816597496779,92.376117702256948,44.271999999999998,15.235000000000014,9.6187700781992547,15.259042459276031,0.27537131291946398
20210502063000,435.86690321602566,8.4885998759393892,0.36155105087283229,0,-10.469485414663211,2,8.3827285295862433E-002,2,1.1723111445177308,2,104.95559960810331,2.8899258870629088,7.4294257895896489,1.3844264346587511,0.90873546818150130,0.65542246413846206,0.56909162528792101,1450.8884239217343,1.3095424628617012E-002,111.83650784830515,204.47280477145566,244.70172422840693,306.33752137103852,92.396676228732645,48.381666666666668,14.266999999999996,8.3701269243967005,14.233501375834066,0.37243124433127789
20210502070000,434.93451013054522,8.4309715638136282,0.45665352024923683,0,-14.240610581837922,2,36.073440406109036,1,7.2714593117801138,1,99.041347173484397,2.8906541256948226,7.8970015104311626,1.2850565429380354,0.98960180976213330,0.73092731611476880,0.63864396640662557,1507.3484005552818,1.2604916018752346E-002,112.39903861000161,205.50129041382135,245.93255886342033,307.87838027792429,92.386251772135424,50.813333333333333,13.405666666666662,7.5417330835174656,13.363875346713598,0.21114823817233591
20210502073000,432.28789046907275,8.1005659909490699,0.54491503528305352,0,-42.968024127175255,0,27.470811124397784,0,4.7224626654137278,0,100.65647041185014,3.1920790172816398,8.2242867657304668,1.3194387940874341,1.0720774869945531,0.78870398674346809,0.69677247394990982,648.73125062944098,2.9287937002518333E-002,113.39566685007189,207.32344469494410,248.11321215322721,310.60829943102965,92.386576203342017,51.018999999999998,12.732333333333315,7.1868142758691933,12.625385770162040,0.21404598978554021
20210502080000,429.93055134448178,7.8069650623476861,0.49818592566670422,0,-55.829914670402964,0,26.385579429546578,0,4.9030790611469532,0,95.337799457552435,2.6728119413452420,7.4064050751801966,1.2428070427269073,0.97899438227910640,0.73654984194885065,0.66565102014577726,435.36819303478154,4.3641222082758099E-002,115.47566417190822,211.12634318038207,252.66431036647074,316.30573434105037,92.407756340928813,50.479666666666667,12.335333333333324,7.0790376429330939,12.229461765713211,0.19587105592670009
20210502083000,429.03268071847179,7.7716790987490993,0.40319024004892096,0,-54.666787118656650,0,14.933111923875074,0,3.7448332052356177,0,102.52334190871144,3.1786694910200382,7.1973775172867454,1.1419308737932536,0.90909920382680076,0.70649627917970415,0.59850686531548003,323.21756493046752,5.8783933986036291E-002,109.65345138451168,200.48148130549257,239.92512943788634,300.35779150466425,92.417346669704855,51.183666666666667,12.057666666666648,6.8520195925015015,11.954457443237288,0.18106693781800826
20210502090000,428.80796055593242,7.8462720482795154,0.37382457525102991,0,-53.506284416579732,0,10.190691833732640,0,3.4377413288736269,0,107.08343689476635,3.0898807357957230,7.2648307414935704,1.1460664288926432,0.89506415290283603,0.70772554399768284,0.57599706136830542,294.39014056939760,6.4540204924155964E-002,106.19381358406045,194.15616001138409,232.35533535843877,290.88130758163868,92.433161272910766,52.572000000000003,11.799333333333323,6.5446731132568630,11.692120206798052,0.18119978557247390
20210502093000,428.15962869074605,7.8530560127343785,0.32835912644219967,0,-47.526139716803648,0,13.399242929446714,0,3.6089847268604638,0,110.82568012452357,2.9600355881114782,7.0747501309244996,1.0487008720992637,0.83294253851361100,0.64170606920790552,0.53963732352189442,272.58830777033353,6.9702182589607822E-002,109.01030783103667,199.30560976962440,238.51791153123290,298.59612167208559,92.453239397910522,53.143666666666668,11.651999999999987,6.4031561409720101,11.543716048134627,0.17573400650526491
20210502100000,427.39706017051492,7.7222746493964900,0.31259644779107443,0,-52.384061917643592,0,19.053426870482358,0,3.2447492943913248,0,115.54685107523095,3.2006239508008711,7.2912239605540545,1.0351043206247710,0.83075103519815729,0.61464371047870570,0.52631321575670731,229.47665727410339,8.2797092417574464E-002,110.59909327712755,202.21041628220718,241.99422302885918,302.94805115298487,92.477566376953121,52.761000000000003,11.511333333333312,6.3956662491678156,11.404653756035714,0.18130724070067425
20210502103000,426.54994773338763,7.5035812613053787,0.28325975268601011,0,-52.109746141152193,0,12.306313717890053,0,2.4107200769069999,0,115.80202537224537,3.2488428822316062,6.8564201568381131,1.0109339344778714,0.78316961049979938,0.59441040509268805,0.50089662909492094,198.89099555982008,9.5529714387122183E-002,109.19035162230070,199.63478724207712,238.91185289265923,299.08928950980885,92.507568660156252,51.319666666666663,11.500666666666689,6.5861565979109162,11.372152135213241,0.19438665530678406
20210502110000,426.19683555794143,7.2697861206193233,0.30432040824885226,0,-42.625776479828993,0,12.364753995903735,0,1.9061299455107705,0,113.37497302482647,3.1812707653591041,7.2104518845944172,1.0553065329288498,0.79299039803952576,0.59584519020921334,0.51908760230871265,270.59211913730780,7.0216383465176765E-002,112.13486760053692,205.01830155549771,245.35454455708262,307.15477495606223,92.505515651258690,50.005666666666670,11.413999999999987,6.7252324763009312,11.254025184631359,0.20045038553097402
20210502113000,425.61159349266842,7.1767280227243644,0.27492913599065544,0,-28.272591210223897,0,10.388408746381511,0,1.2571344759916381,0,111.55511737604093,3.0403420488502819,6.9421621268855809,0.99765739391424868,0.82847603206400600,0.63103930439329670,0.49356814465812593,350.70097586768560,5.4177208811555813E-002,102.86969907312933,188.07861851345467,225.08207041117458,281.77604294467983,92.505647984592017,48.644666666666666,11.636333333333312,7.0107024914198615,11.449592798021115,0.22222215856110172
20210502120000,424.55326403306486,7.1058704264443167,0.46547258153294718,0,-32.436868037048100,1,26.034899225093287,0,2.4966410658723337,1,116.34172113709570,3.4221865299422762,8.2607468502552557,1.2925144051823612,1.1207019664203766,0.78970986742504545,0.64308720914263762,676.16610288500556,2.8099604400357376E-002,106.24212422712471,194.24448727479489,232.46104053364363,291.01363791756279,92.511473781467004,45.707666666666668,12.431666666666672,7.8104996671770381,12.212780759175644,0.21769171295219961
20210502123000,423.52722930469912,7.0108173738905153,0.62959078089430709,0,30.862206194370835,0,29.660769282237709,0,0.96623472619037964,0,117.63641015909047,3.8480933794205523,8.8423588614276589,1.4147789086356914,1.1643816382428673,0.88979556149795369,0.74896269298458495,-1122.5798261839655,-1.6925299704153358E-002,109.09148661813155,199.45403048308009,238.69553321806018,298.81848294663729,92.505670465555184,42.810333333333332,13.225000000000023,8.6660750253464283,12.975446117378624,0.24083170129312650
20210502130000,422.89265065359484,7.1454021772066945,0.89150000626611225,0,73.149478438825767,0,59.108704767156631,0,2.5979396385929410,0,112.64500926619554,3.4242134107943771,9.8720490745137326,1.7128944808004130,1.2409884868805408,0.96891762881937415,0.89275831080349333,-802.04288450622585,-2.3689506343164263E-002,117.27691550717616,214.41960510090033,256.60550377450028,321.23964080888021,92.483502622693422,41.149000000000001,14.122000000000014,9.4537037334586707,13.870715450593934,0.27445128556042769
20210502133000,421.98291983061648,7.2398232829623979,1.0317975952802996,0,194.04189422854890,1,77.372538189762409,0,0.50599749970791097,2,114.52596396365981,2.8259030465775519,8.6655203183052159,1.5345824750473740,1.1756918782965669,0.95238007423762128,0.96201505284575695,-378.30803570962019,-5.0223622568207685E-002,126.22696887122923,230.78315712350462,276.18849623605570,345.75522356832607,92.475477193576381,39.316000000000003,15.029333333333341,10.336556889905880,14.830224555121674,0.48402690338769933
20210502140000,421.43199529729361,7.2618996248593248,0.57201679322176413,0,126.58142012756484,0,55.137153761558224,0,0.42641417710106078,2,106.56959563039601,2.8437067804175680,7.0526113533770598,1.2686454640640010,0.96810411333852653,0.81040822390212675,0.71730981634965951,-240.43076619322736,-7.9024828231551034E-002,113.56833206822560,207.63913178247594,248.49100896939564,311.08125621387143,92.485736922309016,37.345666666666666,15.879999999999995,11.270738644163922,15.651199864705518,0.44689909744744105
20210502143000,421.16564330271666,7.3314169024862643,0.37321268717994205,0,76.447120277874291,0,40.771901043170388,0,-0.11597650848124653,2,94.414531278477867,2.6493024150433966,6.8278000307612077,1.1719012002676967,0.78582770471928620,0.60329530157005518,0.58001633443660749,-210.47486353205284,-9.0272062331597736E-002,121.33417033296141,221.83756091749379,265.48290231461147,332.35309035066660,92.482817530164937,36.296333333333337,16.475666666666655,11.903292990013238,16.260320372687488,0.23622865238825927
20210502150000,420.95963379047657,7.4873448319609688,0.23201695873707115,1,156.59662803656181,0,61.170059096878866,0,-0.12161073665899755,2,87.084738271629377,1.7737233613456880,5.0220293362471713,0.90514101609817155,0.63778346621401427,0.57119891052636007,0.45811274973955352,-50.626536280216570,-0.37529725310132794,104.95494527294899,191.89111362188996,229.64465333113418,287.48785534468419,92.477450297705857,34.858333333333334,17.444333333333304,12.942924239968949,17.217822101820161,0.44506855557863878
20210502153000,421.24988800103893,7.6330797793067848,0.16132107798168721,1,101.30705426690845,0,33.371639381695189,0,-8.8309700086460594E-002,2,75.694867505212585,1.2236783516494196,3.9613271379790493,0.82844465367311504,0.86898629356315726,0.55936840994193660,0.38234856268559569,-45.498628880702306,-0.41759500159484192,92.355788483745670,168.85583671626569,202.07731016691525,252.97681296302486,92.477589104301515,34.386666666666663,17.966333333333353,13.472705072969561,17.733277866784476,0.25516594002134568
20210502160000,421.42938182573306,7.7481461402972016,0.16489962167990993,0,44.148302294538979,0,41.015104218249689,0,-0.13690737028395517,2,49.681518790788118,1.5539162126660151,4.2462132211615753,0.77657960173294338,1.0771351055010792,0.47938442614318555,0.38653594533888325,-107.88415254197579,-0.17611483755788357,105.40462619975658,192.71327377446994,230.62856905113949,288.71960107044413,92.487886005859366,34.965333333333334,17.940666666666687,13.332340030397420,17.787991226196311,0.17999720031798225
20210502163000,421.67535129608706,7.7733034394784442,0.10849319230758715,0,17.520574911542113,0,19.911921721070815,0,0.71677318954700064,0,87.180210441418737,1.4899392534119884,4.0282637610560590,0.64721433085633728,0.45597107997305830,0.36137548065427610,0.31348798246956300,-145.07107661357438,-0.13097028328127924,111.75441035162500,204.32270436387074,244.52209237670678,306.11264360860093,92.536217481987848,34.946666666666665,18.009000000000015,13.393609755512708,17.877443812900083,0.11833881472265853
20210502170000,421.49029467481512,7.9037672084168626,7.6554187763378537E-002,1,27.052022670242973,1,39.670841109193674,1,-0.20812307110330194,2,56.306694656495083,1.1935047216460404,3.6689708608429097,0.50631124098576630,0.51881987960879861,0.31590406160214130,0.26338181063872884,-55.724803145558020,-0.34096127626275058,108.26282496387716,197.93897269102371,236.88239599212807,296.54865029446046,92.540425704644093,35.293666666666667,18.117333333333363,13.413191458065953,18.018593625386529,0.14886310389383045
20210502173000,422.64350651754927,7.9292220373007902,0.11804312283443026,0,4.2768685896487799,0,32.341791474258535,0,0.21770821324439976,1,33.630056412770472,1.6415262795814514,4.7152695796911575,0.75773290909796465,0.63151014098612424,0.41147758696255959,0.32702626310785371,-674.82531767848104,-2.8155434454302002E-002,104.19432313564671,190.50045376691298,227.98038866420964,285.40439347052438,92.563244181645175,35.378999999999998,18.134000000000015,13.409535896084076,18.035146893457750,7.1477765736097723E-002
20210502180000,422.87887757929667,7.9500253813941155,0.17357104381774061,0,5.2989809118227873,1,29.055140971511392,0,0.35934221691870138,1,41.631489548071301,2.0088345701921284,5.4156256799319076,1.0475622060857277,0.83160817386832819,0.42638879836334176,0.39644755051993147,-970.45505086574212,-1.9578444136129865E-002,118.12963482734537,215.97864797904802,258.47127991453596,323.57537113515389,92.575464117838536,35.741333333333330,18.015666666666675,13.235545719455525,17.926287678188828,0.10247801787007096
20210502183000,423.35735121366093,8.0596786387076467,0.17840522908669554,0,2.2167841428892121,2,21.453565926550255,0,0.29338401674762704,2,44.916943984389121,1.8581297610164091,4.6051090166089921,1.0241596136584554,0.78627275964765897,0.42402998473613862,0.40167071566535356,-2413.0599788307663,-7.8738200321097421E-003,119.90403032822370,219.22280886907299,262.35371192964323,328.43571531192555,92.595179772352424,36.994333333333330,17.689333333333309,12.713554524694633,17.610783080207057,0.14590430869194523
20210502190000,423.69692131119831,8.3639282398252366,0.29128367397145133,1,-3.6099337930362196,2,73.624702373652667,1,3.6265303086755245,1,66.621995460596892,1.3516927947523325,5.8635820894646358,1.3730256897646682,0.64391525214865097,0.44619329546465658,0.51281744042476307,3085.2349820576965,6.1583639853998919E-003,139.96089048362441,255.89314604060147,306.23873978916583,383.37456260519889,92.654876289279528,39.225000000000001,17.358999999999980,12.010388979794488,17.311412782457182,8.6199027574624304E-002
20210502193000,423.39352171340221,8.5932652549254414,3.2217339025093050E-002,1,-3.4585096278813716,0,12.717968142369914,1,0.58212864745306470,0,96.403076019218233,1.2530480837009679,3.6325419183769601,0.73520738388168905,0.87637089934632684,0.23817726382248064,0.17036688952153486,118.15400154814888,0.16080708017542106,82.598100972059967,671.00000000000000,1186.0000000000000,3000.0000000000000,92.735680043836794,41.351666666666667,16.966000000000008,11.305355269257333,16.940585890028160,0.26708678725167562
20210502200000,423.82481703209589,9.8585544419877724,0.13356351589890395,0,-17.874226181460614,1,41.605269252958571,1,0.58945470088437280,1,134.38673420923323,2.3229297451698510,7.1186762281888987,1.2374564580495440,0.82462836868678302,0.38007148281443098,0.34623807008252927,191.92883517765776,9.8995025851184720E-002,116.21509091967732,212.47825110336962,254.28219886818547,318.33113875956349,92.730392970486122,51.319333333333333,15.731333333333339,8.6741580227682071,15.821187408447315,0.61740555052901824
20210502203000,424.27624313690455,10.406860235367825,0.25176622038702234,0,-50.573416294426558,0,112.20086584900503,0,4.0403211995085222,1,121.82453297504060,2.3036420808209352,7.3232296165630917,1.0722572403365902,0.74546102735169517,0.54853983642787218,0.47471036575040443,174.79978288517347,0.10869578718230537,111.54017812525636,203.93101952820467,244.05334566611739,305.52582835045115,92.701396229383690,57.558999999999997,14.783000000000015,7.1153266879499020,14.935702740987210,0.27095543284018975
20210502210000,424.51495850356821,11.194006190051690,7.5743987612826136E-002,0,-11.784861518995756,0,23.898281263942334,0,1.1604901288456431,0,116.53700892810869,1.4328759641695958,3.8276901908193177,0.63705256032364266,0.44635978958898354,0.28967051588544557,0.25998725307426546,123.29658555918918,0.15409996889880578,114.83998046279690,209.96411061920608,251.27341482908110,314.56449817790718,92.758691457253931,65.121666666666670,14.011333333333312,5.5627155445190235,14.243792639998446,0.17302544248474477
20210502213000,423.40584233793845,11.982956971295776,7.7388246825456419E-002,0,3.0537711713024831,0,31.302792660446421,0,2.9036190512339513,0,125.50126270889581,1.3512449931314130,3.9128800874778840,0.56758170911741734,0.45708135837697550,0.33811779709414369,0.26288789183565303,-491.96941548767774,-3.8620286956590068E-002,102.38042832061171,187.18407553294946,224.01153093297498,280.43585455280976,92.754031965277775,69.236333333333334,14.115999999999985,4.9398903972464954,14.428826962788889,6.3887755098250357E-002
20210502220000,422.71053025648956,12.228975279150188,0.10829553969108598,0,1.3634093015240418,1,25.935315889696398,0,2.9745045137244372,0,130.29524015606495,1.6067849380676404,4.0402002235992267,0.74024821394841900,0.47249924629524997,0.36096279538703707,0.31095688542226507,-1823.5348735283858,-1.0419323631160729E-002,111.13352479023591,203.18752753635812,243.16357564238140,304.41194186468567,92.741980905381951,71.176000000000002,14.001333333333321,4.5941332321238386,14.347765763176767,0.13007945507159946
20210502223000,423.12091326253994,12.233790731221289,4.2304387994903124E-002,0,-4.8266011876480146,0,11.474797165338648,0,0.67636342739092259,0,119.15761846725798,0.49406985618114152,3.2738962597647756,0.63653911046313083,0.38506989461810692,0.27259316795273486,0.19427285060731475,125.61378001715789,0.15125729038171404,11.457973738848857,80.000000000000000,135.00000000000000,316.00000000000000,92.743217870632463,72.270333333333326,13.772666666666680,4.3545599917492179,14.125901386995565,0.14203193655564580